Zurück zum Katalog

STARLINK-5436

AktivKommunikationVLEO
NORAD 54795·PAYLOAD·🇺🇸 United States

Gestartet Dec 17, 2022 von Cape Canaveral Space Force Station

Loading…

Nächste Überflüge (nächste 24 Stunden)

TLE

AktuellSource: CelesTrak SupGP

Epoche: Sep 14, 2026, 21:05 UTC

1 54795C 22175AP  26257.87895833  .00041828  00000+0  12358-2 0  2570
2 54795  53.1563 243.9817 0001252  98.7072  39.2214 15.34370230    12

Verfolge STARLINK-5436 in Echtzeit mit AllMySat

Download on the App Store